Wind_Speed
9 10 11 12 12 13 13 13 12 11 10 9 8 7 6 5 4 3 3 3 3 3 4 5 6 6 6 7 8 8 9 10 11 11 11 11 12 13 12 12 12 11 11
7 9 10 11 11 12 12 12 12 12 11 10 8 7 6 5 4 3 2 2 2 2 3 4 5 6 6 7 7 8 9 10 11 11 11 12 12 12 13 13 13 13 12
6 7 9 9 10 10 11 11 12 12 11 10 9 8 7 6 4 3 2 1 1 1 2 3 5 5 6 7 8 8 9 9 9 10 11 11 12 12 12 12 13 14 14
5 6 7 8 9 9 9 10 11 11 11 10 9 8 7 6 5 3 2 2 1 0 1 2 3 4 6 7 8 8 9 9 8 8 9 10 10 11 11 12 11 12 13
4 5 5 6 7 7 8 8 9 9 10 10 9 8 7 6 5 4 3 2 2 1 1 2 2 3 4 6 7 8 9 9 8 7 8 9 8 8 8 9 10 10 11
4 4 4 4 5 5 6 6 7 7 8 8 8 8 7 7 6 5 4 3 3 2 2 2 2 3 3 4 6 7 9 9 8 8 8 8 8 8 8 8 8 8 10
4 3 3 2 2 3 3 4 5 5 6 7 7 7 6 6 6 5 5 4 4 3 3 2 2 3 3 4 5 6 7 8 9 9 8 8 7 6 7 7 8 8 9
4 3 2 2 1 0 1 2 2 3 4 4 5 5 5 5 5 5 5 5 4 4 4 3 3 3 3 4 5 5 6 7 9 9 9 9 8 7 7 7 7 8 8
2 2 1 2 2 3 2 2 2 2 2 2 3 3 4 4 4 4 5 5 5 4 4 4 3 3 3 4 5 5 6 7 8 8 9 9 9 8 8 8 8 9 9
1 0 1 2 3 4 5 5 5 5 4 4 4 4 4 4 4 5 5 5 5 5 4 4 4 4 4 5 5 5 6 6 7 7 8 8 9 8 8 8 9 9 9
2 2 3 4 5 6 6 7 8 8 8 7 7 6 6 5 5 6 6 6 6 5 5 4 4 4 5 5 6 6 7 7 6 7 7 7 8 8 9 9 9 9 9
5 5 5 6 6 7 8 9 10 10 10 10 10 9 8 8 8 8 8 7 7 6 6 5 5 5 6 6 7 7 7 7 6 7 8 8 8 9 9 9 10 9 9
8 8 8 8 8 9 9 10 11 12 12 12 12 12 11 11 10 10 10 9 8 8 7 7 7 7 7 7 8 8 8 7 7 8 9 9 10 10 10 10 10 10 10
11 11 11 10 10 11 11 12 13 14 14 14 14 14 14 13 13 12 12 11 10 10 9 8 8 8 8 8 8 9 9 8 8 9 10 10 11 11 12 12 11 11 11
14 13 13 13 13 13 14 15 15 16 16 16 17 16 16 16 15 15 14 13 12 12 11 10 10 10 9 9 9 9 10 9 9 10 11 11 12 13 13 14 13 13 13
17 16 16 17 16 16 16 17 17 17 18 18 18 18 18 18 17 17 16 16 15 14 13 13 12 12 12 11 11 11 11 11 10 10 11 12 12 13 14 15 15 15 15
21 20 19 20 19 19 19 18 19 19 19 20 21 20 20 20 20 19 19 18 18 17 16 15 15 15 14 13 13 12 12 12 12 11 12 12 13 14 14 16 16 17 17
26 25 24 23 23 22 22 21 21 21 21 22 22 22 22 21 22 21 21 20 20 19 19 18 18 17 16 15 15 14 14 14 14 13 13 13 14 14 15 16 17 17 18
29 29 28 27 25 26 25 25 24 24 24 24 23 22 23 22 23 22 22 22 22 22 21 20 20 19 18 17 16 16 15 16 15 15 15 14 14 15 16 16 17 18 19
32 32 32 31 29 29 29 29 28 28 27 26 25 24 24 24 24 23 24 24 24 24 24 23 22 21 20 19 18 17 17 17 17 17 17 16 16 16 17 17 17 18 19
35 35 34 34 34 33 32 31 32 32 31 29 28 27 27 27 26 26 26 27 26 26 26 24 23 23 23 21 20 19 19 19 19 19 19 19 18 18 18 18 18 19 19
37 37 36 36 36 36 35 34 34 35 34 32 31 30 30 29 29 28 28 29 28 28 28 26 26 25 25 24 23 22 21 21 21 21 21 21 20 20 20 20 20 20 19
38 37 37 37 37 37 37 36 36 35 35 35 34 33 33 32 31 31 30 30 31 31 29 27 26 25 25 24 24 23 23 23 23 22 22 22 22 22 22 21 21 22 21
36 37 37 37 37 37 37 37 36 36 36 35 35 36 36 36 35 34 32 31 31 32 29 28 27 26 26 25 25 24 24 24 23 23 23 23 23 23 23 24 24 24 23
35 35 36 37 37 37 37 37 37 37 36 36 37 37 37 38 37 35 35 34 32 31 29 28 29 28 27 26 26 25 24 23 23 24 23 24 24 23 23 24 24 24 23
33 34 35 36 37 37 37 38 38 37 36 37 38 38 39 38 39 38 35 34 32 29 28 26 27 28 27 26 26 24 23 23 23 23 24 24 23 23 23 23 24 24 23
Wind_Direction
82 81 80 80 80 78 77 75 74 73 71 68 65 64 64 65 67 75 88 103 123 146 166 177 183 191 196 204 213 216 218 223 228 234 239 241 242 242 244 246 249 255 263
88 84 82 81 81 80 78 75 73 72 70 69 66 64 63 64 64 65 77 99 125 157 180 193 201 207 213 216 221 226 230 235 237 241 245 245 245 246 247 248 249 253 259
99 90 86 83 81 79 78 75 73 71 69 67 65 62 59 60 61 59 60 78 117 178 200 205 213 220 226 229 231 233 236 237 241 244 247 247 247 248 248 248 250 253 256
112 98 90 86 81 79 76 73 71 69 67 64 61 58 54 51 50 49 46 42 39 252 237 229 228 232 236 235 234 236 236 239 244 247 246 247 252 250 246 246 249 251 254
128 111 97 91 84 80 76 72 69 67 65 62 59 55 51 45 40 36 32 22 7 335 290 266 252 252 245 238 237 238 237 240 243 246 252 254 252 245 245 245 249 251 255
140 127 111 99 89 83 76 71 67 63 61 59 56 53 49 43 35 28 23 16 7 356 333 305 281 273 263 251 245 241 239 241 243 247 255 259 250 248 249 248 251 257 260
149 145 136 121 103 87 75 69 65 60 55 51 49 47 42 36 30 22 14 12 6 357 344 332 307 284 269 262 253 245 243 243 246 250 254 263 271 268 261 256 256 261 267
151 161 173 181 197 187 59 51 50 48 43 36 33 32 31 26 19 10 2 358 358 354 345 333 321 298 275 262 255 252 249 248 250 254 262 271 271 270 264 260 258 263 271
143 168 202 233 249 258 272 290 309 331 347 353 355 355 358 3 358 349 345 344 348 351 345 336 321 307 284 269 263 258 258 256 255 256 263 271 277 276 271 263 262 263 266
128 219 275 286 282 278 278 280 283 287 291 295 299 306 313 322 325 322 326 330 334 340 339 331 320 308 294 282 276 270 267 264 262 260 264 272 275 273 270 269 270 270 269
285 285 291 295 295 291 287 285 284 283 283 281 281 283 286 291 297 302 306 311 317 320 324 322 315 303 293 285 281 275 271 269 269 267 269 272 273 271 269 270 275 275 273
287 287 292 295 296 296 293 291 289 287 284 280 277 275 273 275 279 286 291 295 301 305 307 309 308 300 293 287 283 281 279 277 275 273 275 277 274 272 274 274 275 275 274
285 285 286 290 294 297 298 297 294 291 287 282 277 273 269 268 270 276 281 285 288 291 294 297 299 298 294 290 288 285 283 283 280 274 277 278 278 275 274 275 275 272 272
281 283 286 287 290 295 297 297 296 293 290 285 279 275 270 266 267 270 273 277 279 282 286 288 292 297 295 292 290 286 284 283 279 275 277 276 276 275 274 274 274 273 273
281 282 286 287 288 291 294 295 294 293 290 287 282 278 274 270 268 267 268 269 272 275 278 281 284 291 293 291 288 285 284 282 280 278 278 277 276 274 273 272 272 271 270
278 281 283 284 285 288 291 291 291 290 289 287 283 279 276 273 270 267 265 266 266 267 269 275 278 283 289 289 287 286 286 285 284 284 281 279 278 276 273 271 270 268 267
278 278 278 281 283 287 289 289 288 288 288 288 284 280 276 274 271 269 266 264 263 263 265 269 272 276 280 282 284 285 285 286 288 288 285 283 281 279 276 272 270 267 265
279 279 278 280 282 284 285 285 285 285 287 287 286 283 279 275 272 270 267 264 262 262 262 265 269 271 273 274 278 283 283 283 287 289 288 285 284 283 280 275 271 268 265
277 278 279 279 279 281 283 282 282 282 284 285 285 283 280 277 274 272 269 265 261 261 261 264 266 267 269 270 273 277 279 281 285 286 287 287 285 283 280 276 273 270 268
274 275 277 278 278 278 280 280 280 282 282 283 283 282 280 278 277 274 270 267 263 259 259 261 262 264 267 269 271 274 275 278 281 283 284 284 283 281 279 277 274 271 269
272 273 274 276 277 277 277 276 277 279 279 281 282 281 282 279 277 276 273 270 267 259 256 257 259 262 263 267 268 270 272 275 277 278 281 281 280 279 275 274 273 271 269
270 270 272 273 274 274 275 274 272 275 277 277 279 281 279 277 274 273 271 268 267 263 256 255 255 258 260 263 264 266 268 271 273 274 276 277 278 278 276 274 272 270 269
267 267 268 269 270 271 273 274 273 273 274 276 277 278 279 279 279 276 275 273 268 264 258 255 255 256 258 260 261 262 265 270 272 273 274 276 278 276 275 276 274 270 269
263 264 265 266 267 269 270 272 273 273 273 274 276 277 278 278 281 280 277 275 272 266 259 254 253 255 256 258 259 262 264 267 270 270 272 274 276 277 274 276 275 272 268
261 261 262 263 265 266 267 269 269 271 272 273 275 275 277 279 280 282 280 276 275 267 257 254 253 255 255 256 259 260 261 263 267 270 273 273 274 275 274 274 274 273 270
260 261 261 263 264 265 266 267 268 269 271 272 272 271 274 276 276 279 280 277 273 266 259 254 252 253 253 256 257 259 261 264 268 271 272 273 274 272 272 273 272 272 271
Height
5904 5903 5903 5903 5902 5902 5901 5900 5899 5899 5898 5898 5897 5897 5896 5896 5896 5896 5896 5896 5897 5898 5899 5900 5901 5902 5903 5904 5905 5906 5907 5908 5909 5910 5910 5911 5912 5913 5914 5915 5916 5916 5917
5905 5905 5904 5904 5904 5903 5902 5902 5901 5900 5900 5899 5899 5898 5898 5897 5897 5897 5897 5897 5898 5898 5899 5900 5901 5902 5903 5903 5904 5905 5906 5907 5908 5908 5909 5909 5910 5911 5912 5913 5914 5915 5916
5906 5906 5906 5905 5905 5904 5904 5903 5902 5902 5901 5900 5900 5900 5899 5899 5898 5898 5898 5898 5898 5899 5899 5900 5900 5901 5902 5903 5904 5904 5905 5905 5906 5906 5907 5907 5908 5909 5910 5911 5912 5913 5914
5906 5907 5907 5906 5906 5906 5905 5905 5904 5903 5902 5902 5901 5901 5901 5900 5900 5899 5899 5899 5899 5899 5899 5900 5900 5901 5901 5902 5902 5903 5904 5904 5905 5905 5905 5905 5906 5907 5908 5909 5910 5912 5913
5907 5907 5907 5907 5907 5907 5906 5906 5905 5905 5904 5903 5903 5902 5902 5901 5901 5901 5900 5900 5900 5900 5900 5900 5900 5900 5900 5901 5901 5902 5903 5903 5904 5904 5904 5904 5905 5906 5907 5908 5909 5910 5911
5908 5908 5908 5908 5908 5908 5907 5907 5906 5906 5905 5905 5904 5904 5903 5903 5902 5902 5901 5900 5900 5900 5900 5900 5900 5900 5900 5900 5900 5901 5901 5902 5903 5903 5904 5904 5904 5905 5905 5906 5908 5909 5910
5908 5908 5908 5909 5909 5908 5908 5908 5907 5907 5907 5906 5905 5905 5904 5904 5903 5902 5902 5901 5901 5900 5900 5900 5900 5899 5899 5899 5899 5900 5900 5901 5902 5902 5903 5903 5903 5904 5905 5906 5907 5908 5908
5908 5908 5908 5908 5909 5908 5908 5908 5908 5907 5907 5907 5906 5905 5905 5904 5904 5903 5902 5902 5901 5901 5900 5900 5899 5899 5899 5899 5899 5899 5899 5900 5901 5902 5902 5903 5903 5904 5904 5905 5906 5907 5907
5908 5908 5908 5908 5908 5908 5908 5908 5908 5907 5907 5907 5906 5906 5905 5905 5904 5903 5903 5902 5901 5901 5900 5900 5899 5899 5898 5898 5898 5898 5899 5899 5900 5901 5902 5902 5902 5903 5903 5904 5905 5906 5906
5908 5908 5908 5908 5908 5908 5908 5907 5907 5907 5907 5906 5906 5905 5905 5905 5904 5903 5903 5902 5901 5901 5900 5900 5899 5899 5898 5898 5898 5898 5898 5898 5900 5900 5901 5901 5902 5902 5903 5903 5904 5904 5905
5908 5908 5908 5908 5908 5907 5907 5906 5906 5906 5906 5905 5905 5905 5904 5904 5903 5903 5902 5902 5901 5901 5900 5899 5899 5898 5898 5897 5897 5897 5897 5898 5899 5899 5899 5900 5901 5901 5902 5902 5903 5903 5904
5907 5907 5907 5907 5907 5906 5906 5905 5905 5904 5904 5904 5904 5903 5903 5903 5902 5902 5901 5901 5900 5900 5899 5899 5898 5898 5897 5897 5897 5896 5897 5897 5898 5898 5898 5899 5899 5900 5900 5901 5902 5902 5903
5906 5906 5906 5905 5905 5904 5904 5903 5903 5902 5902 5902 5902 5901 5901 5901 5901 5900 5900 5899 5899 5899 5898 5898 5897 5897 5897 5896 5896 5896 5896 5896 5897 5897 5897 5897 5898 5898 5899 5899 5900 5901 5901
5904 5903 5903 5903 5903 5902 5902 5901 5901 5900 5900 5899 5899 5899 5898 5898 5898 5898 5898 5897 5897 5897 5897 5897 5896 5896 5896 5896 5895 5895 5894 5895 5895 5895 5895 5895 5896 5897 5897 5898 5898 5899 5899
5901 5901 5900 5900 5900 5899 5899 5898 5898 5897 5896 5896 5896 5895 5895 5895 5895 5895 5895 5895 5895 5895 5895 5895 5895 5894 5894 5894 5894 5893 5893 5893 5893 5893 5893 5893 5894 5894 5895 5896 5896 5897 5898
5898 5898 5897 5896 5896 5895 5895 5895 5894 5894 5893 5893 5892 5892 5892 5892 5892 5892 5892 5892 5892 5892 5892 5892 5892 5892 5892 5892 5892 5891 5891 5891 5891 5891 5891 5891 5891 5891 5892 5893 5894 5894 5895
5893 5894 5893 5893 5892 5891 5891 5890 5890 5889 5889 5889 5888 5888 5888 5888 5888 5888 5888 5888 5888 5888 5888 5889 5889 5889 5889 5889 5889 5889 5889 5889 5888 5888 5888 5888 5888 5888 5889 5890 5890 5891 5892
5888 5888 5888 5888 5888 5887 5887 5886 5885 5885 5885 5885 5884 5884 5884 5884 5883 5884 5884 5884 5884 5884 5885 5885 5885 5885 5885 5886 5886 5886 5886 5886 5886 5886 5886 5886 5886 5886 5886 5886 5887 5887 5888
5882 5882 5882 5883 5883 5882 5881 5881 5881 5880 5880 5880 5880 5879 5879 5879 5879 5879 5879 5879 5880 5880 5881 5881 5881 5881 5881 5881 5882 5882 5882 5882 5882 5882 5883 5883 5883 5883 5883 5883 5883 5884 5884
5876 5876 5876 5876 5877 5877 5876 5876 5875 5875 5875 5875 5875 5874 5874 5874 5874 5874 5874 5874 5875 5875 5876 5876 5876 5877 5877 5877 5878 5878 5878 5878 5878 5879 5879 5879 5879 5879 5879 5879 5879 5880 5880
5869 5869 5869 5869 5869 5870 5870 5869 5868 5869 5868 5869 5869 5868 5868 5868 5868 5869 5869 5869 5869 5869 5870 5871 5871 5872 5872 5873 5873 5874 5874 5874 5874 5874 5874 5874 5875 5875 5875 5875 5875 5875 5876
5861 5861 5861 5861 5861 5861 5862 5862 5861 5861 5861 5861 5862 5862 5862 5861 5861 5862 5862 5862 5863 5863 5864 5865 5865 5866 5867 5867 5868 5869 5869 5870 5870 5870 5869 5869 5869 5870 5870 5870 5871 5871 5871
5851 5852 5852 5852 5852 5853 5853 5853 5853 5853 5853 5853 5854 5854 5854 5854 5854 5854 5855 5855 5856 5856 5857 5858 5859 5860 5861 5862 5863 5864 5864 5864 5865 5865 5865 5864 5864 5864 5864 5864 5865 5865 5866
5841 5842 5843 5843 5843 5844 5844 5844 5844 5844 5845 5846 5846 5846 5846 5846 5846 5846 5847 5847 5848 5849 5849 5851 5852 5853 5855 5856 5856 5857 5858 5858 5859 5859 5859 5859 5859 5858 5858 5858 5858 5859 5860
5831 5832 5833 5833 5834 5835 5835 5835 5836 5836 5836 5837 5838 5838 5838 5838 5839 5839 5839 5840 5841 5841 5842 5843 5845 5846 5848 5849 5850 5851 5851 5852 5852 5853 5853 5853 5853 5853 5852 5853 5852 5852 5853
5821 5822 5823 5824 5825 5825 5826 5826 5827 5828 5829 5829 5829 5829 5830 5830 5830 5831 5831 5832 5833 5833 5834 5835 5837 5839 5841 5843 5843 5844 5845 5846 5846 5847 5847 5846 5846 5847 5847 5847 5846 5846 5846